Miscellaneous Local Product
Issued by NWS Hastings, NE

Home | Current Version | Previous Version | Graphics & Text | Print | Product List | Glossary On
Versions: 1 2 3 4 5 6 7 8 9 10 11 12 13 14 15 16 17 18 19 20 21 22 23 24 25 26 27 28 29 30 31 32 33 34 35 36 37 38 39 40 41 42 43 44 45 46 47 48 49 50
000
AXUS43 KGID 201402
MISGRI

GID CWA HOURLY WEATHER ROUNDUP
NATIONAL WEATHER SERVICE HASTINGS NE
900 AM CDT THU JUL 20 2017

NOTE: "FAIR" INDICATES FEW OR NO CLOUDS BELOW 12,000 FEET WITH NO
SIGNIFICANT WEATHER AND/OR OBSTRUCTIONS TO VISIBILITY.

...SOUTH CENTRAL NEBRASKA...

CITY           SKY/WX    TMP DP  RH WIND       PRES   REMARKS
GRAND ISLAND   PTSUNNY   77  70  79 N7        30.01R
HASTINGS       CLOUDY    81  67  62 S8        30.01F
KEARNEY        MOSUNNY   81  67  62 S10       30.00F
ORD            CLOUDY    77  67  71 CALM      30.02R
YORK           CLOUDY    79  70  73 CALM      30.00R
AURORA         MOSUNNY   79  69  70 CALM      30.00S
LEXINGTON      CLOUDY    78  68  70 NE6       30.03R
HOLDREGE       MOSUNNY   78  64  61 S8        30.01F
HEBRON         SUNNY     82  70  66 CALM      30.01S HAZE

...NEBRASKA PANHANDLE...

CITY           SKY/WX    TMP DP  RH WIND       PRES   REMARKS
CHADRON        CLOUDY    71  66  84 W7        30.11F
ALLIANCE       CLOUDY    69  65  86 NW7       30.15S
SCOTTSBLUFF    PTSUNNY   72  64  76 CALM      30.15F
SIDNEY         CLOUDY    74  60  61 NE6       30.18R

...WESTERN AND NORTH CENTRAL NEBRASKA...

CITY           SKY/WX    TMP DP  RH WIND       PRES   REMARKS
VALENTINE      CLOUDY    76  68  76 N6        30.06R
AINSWORTH      LGT RAIN  71  69  94 SE6       30.04F
ONEILL         CLOUDY    74  73  94 CALM      30.04S
BROKEN BOW     CLOUDY    76  64  66 NE7       30.05S
IMPERIAL       CLOUDY    76  60  57 E14       30.04F
NORTH PLATTE   CLOUDY    76  64  66 NE12      30.06S
MCCOOK         MOSUNNY   82  62  50 S7        30.02S

...EASTERN NEBRASKA...

CITY           SKY/WX    TMP DP  RH WIND       PRES   REMARKS
NORFOLK        CLOUDY    83  69  62 CALM      30.00R
SO SIOUX CITY  CLOUDY    83  76  79 NE8       29.96R HX  91
TEKAMAH        CLOUDY    84  74  71 N5        29.95S HX  91
COLUMBUS       PTSUNNY   82  72  71 CALM      30.00R
ALBION         CLOUDY    79  67  67 CALM      30.02R
OMAHA EPPLEY   PTSUNNY   86  70  58 S9        29.95F HX  90
OFFUTT AFB     MOSUNNY   83  71  66 S6        29.96F
MILLARD        MOSUNNY   87  72  61 CALM      29.96F HX  92
LINCOLN        CLOUDY    83  70  64 N3        29.99R
NEBRASKA CITY  SUNNY     82  74  77 SW7       30.00R
BEATRICE       SUNNY     82  71  70 SW7       30.00F
FALLS CITY     SUNNY     84  74  71 E3        29.99S HX  91

...NORTHERN KANSAS...

CITY           SKY/WX    TMP DP  RH WIND       PRES   REMARKS
GOODLAND       SUNNY     72  60  66 W6        30.06S
HILL CITY      SUNNY     84  64  50 S13       30.00F
NORTON         SUNNY     81  55  41 S3        30.02F
PHILLIPSBURG   SUNNY     81  63  54 CALM      30.01S
SMITH CENTER   SUNNY     81  66  61 SW5       30.01S
HAYS           SUNNY     86  65  49 SW20      30.02S
RUSSELL        SUNNY     86  65  49 SW15      30.00F
CONCORDIA      SUNNY     84  69  60 SW13      29.99S
SALINA         SUNNY     89  67  47 SW17G28   30.00S HX  92
TOPEKA         SUNNY     85  73  67 SW7       30.02S HX  91



USA.gov is the U.S. government's official web portal to all federal, state and local government web resources and services.